Theta_e
311 310 311 311 312 313 312 312 312 312 313 313 313 313 314 313 312 305 302 308 308 313 312 305 302 301 301 298 302 304 293 290 293 294 296 302 301 310 314 309 312 314 314 320 328
309 310 311 312 314 313 313 313 312 312 313 314 314 314 314 313 306 301 309 312 312 310 303 300 297 299 294 295 297 296 289 289 294 296 296 300 302 305 305 305 308 311 316 318 316
309 310 310 311 313 313 313 312 312 312 313 313 314 314 313 311 300 299 311 313 312 309 304 301 299 296 292 294 293 292 288 293 293 296 298 297 298 303 301 300 306 307 312 312 312
310 310 311 312 311 312 312 311 312 312 313 313 314 313 312 307 289 301 309 308 307 307 303 299 296 291 290 289 292 288 291 291 292 294 292 292 295 294 297 300 306 307 308 308 308
311 311 311 311 311 311 312 312 312 313 313 313 314 313 308 299 298 304 305 304 304 303 299 296 291 291 287 290 291 289 290 292 292 292 291 292 289 290 291 297 301 303 302 303 305
311 311 311 311 312 313 313 313 314 314 314 314 313 311 303 292 304 305 304 303 302 300 297 296 293 294 290 289 288 291 290 290 292 291 292 289 290 291 291 294 294 296 298 302 304
310 310 311 312 313 313 313 312 312 312 312 312 312 309 300 297 306 307 304 302 303 301 296 298 298 294 293 289 293 291 287 289 290 291 290 291 286 287 292 294 292 293 295 298 300
310 311 311 312 311 312 312 311 311 312 311 311 310 305 295 305 307 303 302 300 302 303 300 301 300 295 292 293 290 286 287 282 290 289 291 288 282 290 294 292 291 292 294 294 296
311 312 311 311 310 311 311 311 311 308 307 307 304 301 292 303 297 299 300 296 298 300 300 300 298 292 291 285 283 285 279 282 285 291 289 287 284 291 294 292 291 292 293 294 295
312 310 310 309 309 310 310 310 302 304 303 303 301 294 295 290 295 296 298 297 295 296 294 293 291 286 286 283 277 280 280 282 282 287 287 286 285 290 292 292 290 291 292 293 294
310 310 309 309 309 309 306 304 297 296 296 290 289 289 291 295 298 294 296 296 296 292 284 289 284 280 284 285 285 284 283 282 285 289 286 285 285 287 291 291 291 291 292 293 294
310 310 309 308 308 305 305 297 294 295 288 292 290 290 293 295 288 293 297 290 288 283 288 285 280 287 289 288 285 284 282 282 285 288 286 285 284 287 289 290 291 291 291 293 294
310 309 308 309 304 304 300 296 300 298 287 286 287 288 291 293 288 289 294 292 287 283 284 282 285 289 287 286 284 284 282 282 281 285 287 284 282 284 288 290 291 292 292 293 293
311 310 309 307 302 301 298 300 299 298 284 284 284 288 290 290 286 294 295 292 288 283 286 285 289 287 286 284 284 281 287 285 283 281 277 284 274 282 286 287 289 290 291 292 293
310 310 308 303 301 298 298 299 298 295 276 282 283 292 290 285 288 291 297 292 285 285 284 283 285 285 283 284 287 283 288 286 285 282 281 280 276 281 285 283 286 289 291 292 293
311 307 304 303 302 298 300 297 295 283 274 277 283 283 283 285 287 289 290 294 293 286 287 286 291 288 287 288 288 289 285 283 283 280 273 277 277 278 281 283 286 289 291 292 293
306 302 301 300 296 298 298 294 284 276 280 278 278 282 281 281 283 285 284 285 283 279 281 284 287 288 289 285 288 286 281 275 273 272 271 279 276 279 285 287 288 289 291 292 293
302 300 297 296 298 298 295 286 276 273 276 280 280 281 277 281 282 282 283 282 287 284 279 276 276 285 288 285 282 283 281 275 269 271 274 278 273 279 286 287 289 291 293 293 294
302 298 296 296 295 296 291 281 278 276 279 278 280 277 279 280 280 280 282 282 284 284 277 275 278 287 288 289 286 283 279 284 278 278 274 277 279 284 285 285 287 289 291 293 292
297 295 293 294 293 292 286 279 278 279 280 280 276 277 275 277 278 280 281 284 283 285 286 280 275 285 288 288 288 282 285 277 278 270 270 275 275 273 278 281 286 287 287 287 288
296 291 293 293 292 289 284 279 276 281 282 278 277 276 277 277 278 278 279 284 285 284 285 283 279 281 286 282 280 280 279 281 281 279 273 271 272 280 280 281 282 284 285 286 286
295 286 292 292 286 282 282 278 279 280 284 281 281 279 277 278 278 278 279 282 287 285 280 284 280 277 281 285 285 283 281 282 277 275 277 275 272 282 283 282 283 283 284 284 285
291 289 292 291 284 282 277 277 279 280 281 280 280 281 282 278 275 280 281 286 287 284 281 283 282 276 278 281 283 280 281 281 280 280 272 271 271 282 282 281 282 282 282 284 284
291 285 287 287 284 284 279 279 278 282 281 282 281 282 281 279 280 278 280 285 287 285 286 286 283 278 274 276 280 276 279 280 278 274 272 272 273 276 279 279 281 281 282 282 282
290 285 285 282 282 283 283 280 278 278 282 283 280 280 278 276 278 276 282 282 285 285 284 281 278 279 281 281 281 278 277 278 275 277 273 274 273 275 278 279 281 282 282 281 280
286 284 285 281 283 282 281 280 279 280 280 279 278 281 281 276 280 278 280 280 280 282 281 281 279 276 278 281 281 277 277 278 277 277 277 277 275 280 280 280 281 281 281 280 281
289 289 289 282 282 282 283 282 281 282 283 283 282 281 279 281 284 284 283 283 282 279 278 278 273 275 279 279 279 275 275 276 278 278 278 275 278 280 278 278 278 280 281 280 281
Wind_Speed
7 7 8 8 9 8 10 11 12 12 13 14 15 16 17 18 19 7 7 7 8 9 10 9 5 8 5 4 6 7 9 15 22 21 20 14 19 9 7 7 15 22 23 3 7
5 8 9 10 13 8 10 11 12 11 13 13 14 16 17 18 17 4 6 10 12 9 7 10 10 11 5 4 4 9 13 14 14 18 14 16 9 12 10 11 14 16 6 7 5
2 8 9 10 11 10 11 12 12 13 14 13 13 15 16 15 12 3 3 11 9 10 7 8 8 8 8 5 8 7 17 17 13 12 11 14 15 12 14 16 18 13 13 8 9
5 8 8 10 12 13 13 12 12 12 14 14 14 12 13 10 7 4 6 7 8 8 9 9 10 11 10 9 5 12 16 15 16 16 14 17 17 19 19 17 18 10 14 13 14
5 7 9 11 12 12 12 12 12 12 14 15 15 11 8 8 8 4 4 4 8 7 10 10 11 10 11 9 11 17 18 18 16 16 18 19 22 23 27 20 18 16 17 18 18
7 10 11 12 13 14 14 14 15 14 14 14 13 7 6 13 4 3 5 8 9 10 8 7 6 7 11 15 14 15 16 19 19 20 18 19 22 20 23 19 22 24 22 18 17
8 10 12 14 15 13 12 13 13 13 13 13 11 6 7 13 4 7 7 8 8 8 8 7 7 9 8 13 8 12 17 19 20 19 21 16 23 30 24 24 25 24 21 20 20
10 10 12 11 10 12 13 15 15 14 13 12 9 7 6 3 7 8 8 9 7 9 11 11 8 12 15 12 17 19 16 17 8 4 7 8 21 18 16 17 23 22 20 21 21
9 10 9 11 12 14 15 16 14 10 6 6 5 4 4 1 4 6 7 9 9 7 6 7 6 10 4 10 12 10 14 16 18 14 11 13 20 13 8 13 17 17 17 16 16
9 6 10 11 12 13 15 14 2 4 2 2 3 4 2 9 9 12 12 8 6 7 7 7 5 5 4 9 11 13 11 15 16 11 8 17 28 21 19 17 15 16 16 16 16
8 10 9 8 9 8 11 3 4 5 2 4 6 5 8 13 8 3 4 5 6 7 5 6 6 14 18 19 23 22 23 26 20 18 16 22 26 25 22 21 21 19 18 18 17
9 9 4 5 3 7 6 4 3 4 6 1 2 5 6 5 9 8 2 4 2 8 7 6 16 22 21 20 19 21 24 27 24 22 19 21 27 25 24 24 24 22 20 19 18
8 3 3 1 1 2 7 4 3 4 5 1 3 4 5 6 8 7 3 4 5 9 11 16 21 24 19 20 20 21 23 24 25 23 14 15 27 27 31 25 25 26 22 21 19
10 3 1 3 4 1 2 2 4 4 2 6 1 2 5 11 6 8 3 7 3 7 8 14 16 14 16 20 19 23 23 25 25 18 14 16 15 17 16 18 24 25 21 21 20
3 7 6 3 3 2 3 4 3 3 4 10 4 4 13 4 11 3 2 6 13 13 3 13 20 20 18 24 18 16 15 16 14 13 15 19 15 24 16 21 22 22 23 21 19
10 11 9 4 3 2 4 3 4 1 3 5 6 10 11 3 7 7 6 7 12 12 16 22 19 19 17 19 11 12 6 4 6 5 11 14 14 16 9 18 18 20 20 20 18
13 11 4 2 2 3 3 4 2 4 2 8 7 11 12 7 11 8 13 9 7 10 13 21 6 6 8 10 9 8 3 4 6 8 8 3 8 15 9 17 21 20 16 17 16
12 8 7 5 3 3 3 1 3 1 4 5 7 14 4 11 4 13 11 9 7 11 16 11 9 1 3 5 9 12 5 5 6 4 6 3 7 3 9 18 16 20 9 16 11
11 3 3 4 4 3 2 2 3 1 3 7 9 5 4 5 7 8 7 7 8 9 9 8 6 10 10 5 5 7 5 8 7 7 10 8 3 4 16 16 18 16 14 9 9
3 3 3 6 4 2 2 3 0 2 3 3 5 4 5 10 10 11 8 4 9 10 9 5 13 4 8 4 5 4 8 6 5 5 7 3 5 11 19 17 6 11 12 11 9
2 2 3 4 3 2 2 3 3 4 3 3 4 4 5 7 8 7 7 7 7 14 12 7 5 13 13 8 15 16 6 6 5 4 5 4 5 12 15 14 10 9 11 11 10
3 1 3 1 2 1 2 3 2 2 3 3 3 4 4 6 6 5 5 5 6 11 13 3 5 12 14 9 15 15 16 3 4 5 5 2 5 16 13 15 11 14 10 10 10
3 2 1 2 1 2 3 1 1 3 4 2 4 4 6 4 6 7 6 6 8 10 12 9 6 8 6 10 16 23 25 19 7 3 17 5 6 14 15 16 17 13 11 11 12
3 3 1 2 1 4 5 3 2 4 4 2 4 3 6 3 5 7 8 7 12 5 13 5 4 5 9 10 14 23 26 24 17 7 8 11 12 18 17 17 14 13 13 15 16
1 1 1 4 3 4 2 6 3 4 5 4 3 6 2 4 4 4 7 12 8 8 10 5 4 6 5 3 14 18 22 23 21 16 10 10 13 16 16 15 14 14 14 17 18
5 5 3 3 7 8 2 6 6 3 5 4 5 3 6 5 4 9 10 6 4 11 8 9 4 4 4 5 3 18 22 20 19 16 12 13 12 11 10 14 16 15 15 17 15
2 1 1 6 6 4 4 5 6 4 6 5 4 5 7 9 8 10 12 14 15 9 7 7 7 6 4 8 6 10 17 16 13 19 12 12 7 10 16 17 18 16 17 17 16
Wind_Direction
353 353 342 334 329 339 335 340 335 343 339 336 332 332 329 334 316 327 12 15 332 322 299 323 305 339 292 273 269 262 250 248 252 256 260 265 269 232 269 303 271 252 253 63 45
352 337 330 336 330 316 327 337 338 331 326 328 328 325 329 332 321 33 59 41 31 347 347 355 355 343 291 265 245 239 243 261 286 287 292 296 309 307 282 262 242 259 224 114 18
327 336 330 330 338 335 327 329 328 322 324 326 326 330 326 319 301 74 68 22 4 335 352 346 331 332 295 278 244 252 251 283 306 294 324 299 292 278 264 255 253 240 235 9 318
321 324 327 331 323 319 322 322 319 316 318 317 320 335 317 312 330 61 19 356 337 312 313 316 320 311 298 275 264 272 266 267 280 284 292 279 292 278 274 267 278 301 306 302 294
346 350 329 321 323 323 316 315 315 313 310 311 317 336 296 297 299 74 348 340 299 304 293 314 305 305 268 290 287 268 267 273 275 269 272 276 270 274 267 264 267 272 276 276 282
345 334 326 325 318 308 307 309 310 313 313 317 324 339 291 292 51 343 322 308 303 301 300 285 296 309 285 273 270 293 294 287 281 273 262 265 268 263 252 257 256 257 253 261 262
345 336 322 315 306 312 315 312 311 315 313 311 311 303 263 274 320 314 295 298 301 294 294 285 284 269 298 282 287 288 282 280 266 256 252 253 267 254 263 258 257 257 251 251 256
334 318 309 319 323 316 310 306 308 309 304 301 297 267 268 41 326 290 294 295 273 273 271 288 275 268 266 269 277 273 280 274 268 322 237 206 260 268 262 231 239 244 252 253 249
312 307 308 313 312 307 306 304 307 300 299 280 225 225 298 225 288 324 303 293 311 278 272 261 243 255 262 249 268 229 267 270 280 251 239 213 271 268 270 253 247 243 250 253 249
319 312 305 311 312 309 308 306 335 211 227 156 132 252 187 328 314 306 288 285 276 283 264 223 226 241 211 233 253 266 247 255 265 271 235 244 256 266 272 259 248 251 257 255 255
311 307 308 320 324 330 315 258 234 181 20 11 332 286 310 329 291 253 309 284 251 251 246 220 244 237 242 231 254 273 279 280 278 281 267 256 260 266 270 268 258 251 249 252 249
300 316 10 346 10 333 306 41 36 356 307 115 296 279 286 327 302 330 108 253 145 255 284 242 245 257 268 272 267 253 260 261 275 267 260 263 266 274 274 270 260 257 248 249 249
311 320 5 38 263 10 59 55 328 297 266 6 343 311 325 326 311 297 237 262 238 272 257 256 268 304 272 271 266 252 252 264 265 277 259 262 266 257 260 255 253 252 248 249 249
295 209 110 157 246 35 49 358 308 300 288 10 344 62 311 322 266 251 255 277 238 280 289 266 267 271 279 269 265 266 254 263 263 262 261 190 276 260 266 250 238 245 240 237 239
254 128 106 348 64 316 31 309 284 246 276 349 341 333 323 270 319 127 267 253 272 270 211 265 298 296 285 280 288 279 286 275 270 267 277 249 264 277 267 259 252 241 233 233 229
135 123 131 111 77 32 310 285 249 238 346 349 319 334 353 291 323 302 291 210 265 285 262 262 269 280 278 294 287 284 263 241 239 243 246 248 228 282 282 262 260 245 236 231 221
116 89 67 32 47 339 306 246 266 32 76 343 331 331 335 305 324 322 322 311 342 308 330 313 267 274 312 289 260 221 200 248 221 208 251 108 245 245 318 331 305 292 251 248 206
116 95 62 64 1 326 255 314 18 67 322 335 313 312 302 359 354 327 327 349 8 355 313 345 320 44 21 292 304 256 214 242 284 262 291 84 242 291 349 321 285 270 247 284 169
132 80 80 26 351 293 286 34 18 63 339 320 305 312 338 359 328 325 323 329 342 27 344 315 277 324 303 301 316 358 242 297 280 253 267 242 243 227 341 309 274 231 232 137 108
111 127 75 339 334 252 76 83 203 261 319 283 332 10 321 335 333 344 331 5 331 356 341 301 290 271 316 306 212 253 296 257 191 263 261 199 75 337 334 342 48 122 108 97 94
102 111 56 343 278 34 61 96 215 235 257 297 323 307 295 322 324 325 308 314 354 330 324 272 252 311 326 359 341 327 275 243 286 239 300 1 44 341 349 5 13 81 88 95 93
132 89 34 317 25 360 97 145 191 229 223 271 293 287 288 317 298 298 299 289 317 322 336 353 306 306 315 18 3 351 352 333 281 45 341 55 50 347 12 23 21 51 59 80 83
109 101 103 267 187 132 128 154 227 228 237 234 251 251 306 291 306 304 299 287 324 330 350 342 343 325 6 7 14 19 19 19 22 44 17 24 354 355 18 37 27 39 43 63 68
135 136 50 68 341 136 152 166 197 219 256 225 284 289 285 269 234 299 306 309 325 4 333 292 288 349 28 7 357 10 15 18 26 36 50 35 19 9 16 26 34 34 41 51 53
24 161 86 160 184 128 202 155 170 217 220 206 245 237 301 295 288 252 304 314 327 9 0 26 305 335 247 53 15 21 13 17 24 25 43 8 34 20 13 22 26 28 42 51 48
140 149 120 101 130 141 179 204 202 200 177 217 235 273 262 234 269 311 336 334 322 329 358 6 308 329 260 328 212 25 10 11 23 6 34 32 46 12 20 27 35 33 36 47 47
124 127 215 159 155 162 198 192 202 176 207 265 273 298 267 270 287 284 286 278 278 301 325 349 333 332 317 348 326 13 357 352 10 17 353 24 18 4 36 34 25 30 37 42 41